This is the latest recevied weather packets stored in our database for station/object KC3AWA. If no packets are shown the sender has not sent any weather packets the latest 1 day(s).
| Time | Temp. | Humidity | Pressure | Rain* | Wind** | Luminosity | Snow |
|---|---|---|---|---|---|---|---|
| 1778074218 | 8.33° C | 97% | 1009.3 hPa | 0 mm | - | 130 W/m² | - |
| 1778073915 | 8.33° C | 97% | 1009 hPa | 0 mm | - | 135 W/m² | - |
| 1778073006 | 7.78° C | 97% | 1008.6 hPa | 0 mm | - | 145 W/m² | - |
| 1778070889 | 7.78° C | 98% | 1008.4 hPa | 1.27 mm | - | 79 W/m² | - |
| 1778070283 | 7.78° C | 98% | 1008.6 hPa | 0 mm | - | 59 W/m² | - |
| 1778067863 | 7.78° C | 98% | 1008.5 hPa | 0 mm | - | 13 W/m² | - |
| 1778067259 | 7.78° C | 98% | 1008.3 hPa | 1.27 mm | - | 15 W/m² | - |
| 1778066955 | 7.78° C | 98% | 1008 hPa | 1.27 mm | - | 16 W/m² | - |
| 1778066653 | 7.78° C | 98% | 1007.1 hPa | 0 mm | - | 30 W/m² | - |
| 1778066350 | 7.78° C | 98% | 1007.5 hPa | 0 mm | - | 27 W/m² | - |
| 1778065745 | 7.78° C | 98% | 1008 hPa | 3.05 mm | - | 14 W/m² | - |
| 1778064835 | 7.78° C | 98% | 1008 hPa | 3.56 mm | - | 4 W/m² | - |
| 1778063928 | 7.78° C | 98% | 1007.8 hPa | 3.05 mm | - | 2 W/m² | - |
| 1778062717 | 8.33° C | 98% | 1007.6 hPa | 3.05 mm | - | 1 W/m² | - |
| 1778061204 | 8.33° C | 98% | 1007 hPa | 1.78 mm | - | 0 W/m² | - |
| 1778060901 | 8.33° C | 98% | 1007.2 hPa | 3.05 mm | - | 0 W/m² | - |
| 1778060600 | 8.33° C | 98% | 1007 hPa | 1.27 mm | - | 0 W/m² | - |
| 1778059994 | 8.89° C | 98% | 1007.6 hPa | 3.05 mm | - | 0 W/m² | - |
| 1778059087 | 9.44° C | 98% | 1007.2 hPa | 6.1 mm | - | 0 W/m² | - |
| 1778058179 | 9.44° C | 98% | 1007.3 hPa | 4.83 mm | - | 0 W/m² | - |
| 1778057875 | 9.44° C | 98% | 1007.1 hPa | 4.83 mm | - | 0 W/m² | - |
| 1778056662 | 10° C | 98% | 1007.3 hPa | 3.05 mm | - | 0 W/m² | - |
| 1778056057 | 10° C | 98% | 1007.3 hPa | 1.78 mm | - | 0 W/m² | - |
| 1778055752 | 10° C | 98% | 1007.2 hPa | 3.05 mm | - | 0 W/m² | - |
| 1778055148 | 10° C | 98% | 1006.9 hPa | 1.78 mm | - | 0 W/m² | - |
* Rain latest hour (hover to see other rain measurements)
** Current wind speed in m/s (hover to see current wind gust speed)